Regional Weather Roundup
Issued by NWS

Home | Current Version | Previous Version | Text Only | Print | Product List | Glossary Off
Versions: 1 2 3 4 5 6 7 8 9 10 11 12 13 14 15 16 17 18 19 20 21 22 23 24 25 26 27 28 29 30 31 32 33 34 35 36 37 38 39 40 41 42 43 44 45 46 47 48 49 50

000
ASUS43 KMKX 260259
RWRWI

WISCONSIN REGIONAL WEATHER ROUNDUP
NATIONAL WEATHER SERVICE MILWAUKEE/SULLIVAN WI
1000 PM CDT THU MAY 25 2017

NOTE: "FAIR" INDICATES FEW OR NO CLOUDS BELOW 12,000 FEET WITH NO
SIGNIFICANT WEATHER AND/OR OBSTRUCTIONS TO VISIBILITY.

WIZ001-002-006>008-014>016-023>028-260400-
NORTHWEST WISCONSIN

CITY           SKY/WX    TMP DP  RH WIND       PRES   REMARKS
SUPERIOR ARPT  NOT AVBL
ASHLAND        CLOUDY    47  43  86 N3        29.73R
HAYWARD        MOCLDY    60  49  66 N3        29.71R
SIREN          CLOUDY    61  52  72 CALM      29.70R
CUMBERLAND     CLOUDY    59  54  82 S3        29.71R
RICE LAKE      CLOUDY    63  55  75 CALM      29.72R
CHETEK         CLOUDY    62  55  78 CALM      29.71R
LADYSMITH      CLOUDY    60  54  81 CALM      29.73R
EAU CLAIRE     NOT AVBL
MENOMONIE      CLEAR     62  55  79 SE3       29.70R
NEW RICHMOND   CLOUDY    62  50  65 CALM      29.69S
OSCEOLA        CLOUDY    61  53  74 SE5       29.71S
$$

WIZ003>005-009-010-017-018-260400-
NORTH CENTRAL WISCONSIN

CITY           SKY/WX    TMP DP  RH WIND       PRES   REMARKS
MANITOWISH WTR CLOUDY    61  50  65 CALM      29.73R
ARBOR VITAE    MOCLDY    59  50  71 CALM      29.74R
WOODRUFF       MOCLDY    59  50  71 CALM      29.74R
RHINELANDER    CLOUDY    59  52  77 CALM      29.75R
EAGLE RIVER    PTCLDY    57  46  66 CALM      29.74R
LAND O LAKES   CLEAR     55  48  76 CALM      29.76R
PHILLIPS       PTCLDY    62  52  70 CALM      29.71R
TOMAHAWK       CLEAR     55  50  82 CALM      29.73R
MEDFORD        CLOUDY    58  52  81 CALM      29.73R
MERRILL        CLOUDY    58  53  84 CALM      29.73R
$$

WIZ029-030-035-036-043>047-260400-
CENTRAL WISCONSIN

CITY           SKY/WX    TMP DP  RH WIND       PRES   REMARKS
WAUSAU         MOCLDY    61  52  72 E3        29.72R
MOSINEE        MOCLDY    61  54  77 SE5       29.75R
MARSHFIELD     CLOUDY    61  49  64 S3        29.73R
STEVENS POINT  MOCLDY    62  50  65 SE5       29.74R
WAUPACA        CLEAR     61  51  71 CALM      29.73R
WAUTOMA        CLEAR     57  53  86 MISG        N/A
WISC RAPIDS    CLOUDY    60  52  74 S3        29.75R
CAMP DOUGLAS   CLOUDY    60  54  78 S6        29.73R
$$

WIZ011>013-019>022-031-037>040-048>050-260400-
NORTHEAST WISCONSIN

CITY           SKY/WX    TMP DP  RH WIND       PRES   REMARKS
ANTIGO         PTCLDY    57  53  87 S3        29.75R
SHAWANO        PTCLDY    56  51  83 SE3       29.74R
OCONTO         CLEAR     55  51  86 E5        29.75R
STURGEON BAY   PTCLDY    52  50  93 CALM      29.77R
GREEN BAY      CLEAR     58  54  86 E6        29.75R
MANITOWOC      NOT AVBL
APPLETON       PTCLDY    57  50  77 SE6       29.74R
CLINTONVILLE   CLEAR     59  50  72 CALM      29.73R
OSHKOSH        MOCLDY    58  54  86 CALM      29.74R
$$

WIZ032>034-041-042-053>061-260400-
SOUTHWEST WISCONSIN

CITY           SKY/WX    TMP DP  RH WIND       PRES   REMARKS
LA CROSSE      CLEAR     62  55  77 E5        29.71R
SPARTA         CLEAR     57  55  94 CALM      29.73R
VIROQUA        CLEAR     61  51  68 N5        29.73R
BOSCOBEL       CLEAR     57  54  89 CALM      29.74R
PRAIRIE DU CHI PTCLDY    62  53  74 CALM      29.71S
PLATTEVILLE    CLEAR     63  55  77 CALM      29.74R
$$

WIZ056-057-062-063-064-067-068-260400-
SOUTH CENTRAL WISCONSIN

CITY           SKY/WX    TMP DP  RH WIND       PRES   REMARKS
REEDSBURG      PTCLDY    62  54  74 CALM      29.72R
BARABOO/DELLS  PTCLDY    59  51  73 SE3       29.73R
LONE ROCK      NOT AVBL
MINERAL POINT  PTCLDY    64  54  68 S5        29.75R
MADISON        MOCLDY    58  51  78 CALM      29.74R
MIDDLETON      CLEAR     56  54  90 CALM      29.74R
WATERTOWN      CLEAR     55  54  95 CALM      29.74R
MONROE         CLOUDY    63  52  67 S5        29.74R
JANESVILLE     CLEAR     59  55  88 CALM      29.74R
$$

WIZ051-052-058>065-066-070>072-260400-
SOUTHEAST WISCONSIN

CITY           SKY/WX    TMP DP  RH WIND       PRES   REMARKS
MILWAUKEE      CLEAR     55  51  86 N6        29.75R
WAUKESHA       NOT AVBL
MILWAUKEE/TIMM   N/A     54  46  76 CALM      29.76R
RACINE         CLEAR     55  50  83 N8        29.77R
KENOSHA        CLEAR     55  51  86 N5        29.75R
FOND DU LAC    CLEAR     56  52  86 SE3       29.74R
SHEBOYGAN      CLEAR     52  52 100 CALM      29.75R
WEST BEND      CLEAR     54  52  94 CALM      29.75R
JUNEAU         CLEAR     58  53  83 CALM      29.75R
$$

LSZ147-162-260400-
LAKE SUPERIOR

STATION/POSITION TIME  TEMP    WIND        PRES    WAVE
                       AIR SEA DIR/SP/G            HT/PER
                 (UTC) (F)     (DEG/KT/KT) (MB)    (FT/S)
$$

LMZ867-665-643>646-260400-
LAKE MICHIGAN

STATION/POSITION TIME  TEMP    WIND        PRES    WAVE
                       AIR SEA DIR/SP/G            HT/PER
                 (UTC) (F)     (DEG/KT/KT) (MB)    (FT/S)
$$

TC  - TEMPERATURE IN CELSIUS
VSB - VISIBILITY IN STATUTE MILES
WCI - WIND CHILL INDEX
HX  - HEAT INDEX





USA.gov is the U.S. government's official web portal to all federal, state and local government web resources and services.